AirNav   Duncan Aviation - Near you to keep you flying
 
 840 users online  

34ID Freeman Creek Airport
Cavendish, Idaho, USA

GOING TO CAVENDISH?


FAA INFORMATION EFFECTIVE 11 AUGUST 2022

Location

FAA Identifier: 34ID
Lat/Long: 46-34-13.2000N 116-20-37.0000W
46-34.220000N 116-20.616667W
46.5703333,-116.3436111
(estimated)
Elevation: 3100 ft. / 945 m
From city: 4 miles E of CAVENDISH, ID
Time zone: UTC -7 (UTC -8 during Standard Time)
Zip code: 83541

Airport Operations

Airport use: Private use. Permission required prior to landing
Activation date: 03/2008
Control tower: no
ARTCC: SEATTLE CENTER
FSS: BOISE FLIGHT SERVICE STATION
Attendance: UNATNDD
Wind indicator: yes
Segmented circle: no

Nearby radio navigation aids

VOR radial/distance  VOR name  Freq  Var
MQGr042/24.5NEZ PERCE VOR/DME108.2020E
PUWr080/36.8PULLMAN VOR/DME109.0020E

Airport Services

Runway Information

Runway 7/25

Dimensions: 2300 x 35 ft. / 701 x 11 m
Surface: gravel, in good condition
RUNWAY 7  RUNWAY 25
Traffic pattern: rightleft
Obstructions: 1040 ft. tower, 12144 ft. from runwaynone

Airport Ownership and Management from official FAA records

Ownership: Privately-owned
Owner: KEN & ROBIN KYLE
65 BARLEY DR
LENORE, ID 83541
Phone (208) 476-9048
Manager: KEN KYLE
65 BARLEY DR
LENORE, ID 83541
Phone (208) 476-9048

Airport Operational Statistics

Aircraft based on the field: 2
Single engine airplanes: 2
    
Aircraft operations: 105/year *
95% local general aviation
5% transient general aviation
* for 12-month period ending 22 October 2021

Additional Remarks

FOR CD CTC SEATTLE ARTCC AT 253-351-3694.

Instrument Procedures

There are no published instrument procedures at 34ID.

Some nearby airports with instrument procedures:

KLWS - Lewiston/Nez Perce County Airport (30 nm SW)
KPUW - Pullman/Moscow Regional Airport (33 nm W)
KGIC - Idaho County Airport (39 nm S)
KCOE - Coeur d'Alene Airport - Pappy Boyington Field (75 nm N)
KSFF - Felts Field Airport (78 nm NW)
 
Loc | Ops | Rwys | IFR | FBO | Links
Com | Nav | Svcs | Stats | Notes
Aerial photo
WARNING: Photo may not be current or correct
Aerial photo of 34ID (Freeman Creek Airport)
Photo by Jerry Kyle.
Photo taken 23-Jun-2007

Do you have a better or more recent aerial photo of Freeman Creek Airport that you would like to share? If so, please send us your photo.

 
Sectional chart

 
Airport distance calculator
Flying to Freeman Creek Airport? Find the distance to fly.

From to 34ID

Sunrise and sunset
Times for 16-Aug-2022
 Local
(UTC-7)
 Zulu
(UTC)
Morning civil twilight05:1312:13
Sunrise05:4612:46
Sunset19:5302:53
Evening civil twilight20:2603:26

Current date and time
Zulu (UTC)  17-Aug-2022 04:53:33
Local (UTC-7)  16-Aug-2022 21:53:33
 
METAR
KLWS 
30nm SW 
170356Z 17005KT 10SM CLR 31/04 A2991 RMK AO2 SLP117 T03060039
KPUW 
34nm W 
170353Z AUTO 00000KT 9SM CLR 21/05 A3002 RMK AO2 SLP149 T02060050
KGIC 
39nm S 
170435Z AUTO 00000KT 10SM CLR 20/06 A3005 RMK AO1
KP69 
40nm SE 
170352Z AUTO 00000KT 21/14 A2995 RMK AO1 SLP124 T02060144
TAF
KLWS 
30nm SW 
161720Z 1618/1718 VRB05KT P6SM SKC
KPUW 
34nm W 
161720Z 1618/1718 VRB05KT P6SM FEW250
NOTAMs
Click for the latest NOTAMs
NOTAMs are issued by the DoD/FAA and will open in a separate window not controlled by AirNav.

 

 
 

Would you like to see your business listed on this page?

 If your business provides an interesting product or service to pilots, flight crews, aircraft, or users of the Freeman Creek Airport, you should consider listing it here.  To start the listing process, click on the button below
 
Add a business
 

Other Pages about Freeman Creek Airport

Update a link
 
Copyright © AirNav, LLC. All rights reserved. Privacy Policy  Contact